User: anonymous   Login
Location: NJAA Observatory
(40.6819°N, 74.8979°W)
Time: 16:54:16
(UTC-04:00)
Language:

Iridium 84 - Orbit

View from above orbital plane
View from above orbital plane
View from above satellite
View from above satellite

Ground track
Ground track

The orbit data is extracted from the following two-line orbital elements,

1 25530U 98066D   17201.98263816 +.00000093 +00000-0 +26237-4 0  9994
2 25530 086.3971 335.8288 0002201 092.4844 267.6604 14.34216777981779
Epoch (UTC): 20 July 2017 23:34:59
Eccentricity: 0.0002201
inclination: 86.3971°
perigee height: 776 km
apogee height: 779 km
right ascension of ascending node: 335.8288°
argument of perigee: 92.4844°
revolutions per day: 14.34216777
mean anomaly at epoch: 267.6604°
orbit number at epoch: 98177

The dashed part of the orbit path shows where the satellite is in the earth's shadow,  

DLR